Time,TemperatureF,DewpointF,PressureIn,WindDirection,WindDirectionDegrees,WindSpeedMPH,WindSpeedGustMPH,Humidity,HourlyPrecipIn,Conditions,Clouds,dailyrainin,SoftwareType,DateUTC
2013-03-15 00:02:00,55.9,37.5,29.42,West,270,2.4,5.3,50,0.00,,,0.00,VWS V14.01,2013-03-14 22:02:00,
2013-03-15 00:07:00,55.9,38.5,29.42,West,270,0.0,0.0,52,0.00,,,0.00,VWS V14.01,2013-03-14 22:07:00,
2013-03-15 00:12:00,55.6,39.2,29.42,SW,225,0.0,0.0,54,0.00,,,0.00,VWS V14.01,2013-03-14 22:12:00,
2013-03-15 00:17:00,55.4,39.5,29.43,WNW,292,2.4,2.4,55,0.00,,,0.00,VWS V14.01,2013-03-14 22:17:00,
2013-03-15 00:22:00,55.4,39.9,29.43,West,270,6.7,6.7,56,0.00,,,0.00,VWS V14.01,2013-03-14 22:22:00,
2013-03-15 00:27:00,55.4,40.4,29.43,WSW,248,7.3,8.0,57,0.00,,,0.00,VWS V14.01,2013-03-14 22:27:00,
2013-03-15 00:32:00,55.4,40.4,29.43,SSW,202,7.3,8.0,57,0.00,,,0.00,VWS V14.01,2013-03-14 22:32:00,
2013-03-15 00:37:00,55.2,40.2,29.43,WSW,248,4.2,4.9,57,0.00,,,0.00,VWS V14.01,2013-03-14 22:37:00,
2013-03-15 00:42:00,55.4,39.9,29.43,SW,225,3.8,3.8,56,0.00,,,0.00,VWS V14.01,2013-03-14 22:42:00,
2013-03-15 00:48:00,55.4,39.9,29.43,SSW,202,12.5,12.5,56,0.00,,,0.00,VWS V14.01,2013-03-14 22:48:00,
2013-03-15 00:53:00,55.4,39.9,29.43,SSW,202,3.1,3.3,56,0.00,,,0.00,VWS V14.01,2013-03-14 22:53:00,
2013-03-15 00:58:00,55.4,39.0,29.43,SW,225,13.1,13.1,54,0.00,,,0.00,VWS V14.01,2013-03-14 22:58:00,
2013-03-15 01:03:00,55.8,37.9,29.42,SSE,158,8.9,10.0,51,0.00,,,0.00,VWS V14.01,2013-03-14 23:03:00,
2013-03-15 01:08:00,55.9,37.0,29.42,SSW,202,24.8,24.8,49,0.00,,,0.00,VWS V14.01,2013-03-14 23:08:00,
2013-03-15 01:13:00,56.3,37.4,29.43,WSW,248,12.5,20.1,49,0.00,,,0.00,VWS V14.01,2013-03-14 23:13:00,
2013-03-15 01:18:00,56.3,36.8,29.43,South,180,12.7,12.7,48,0.00,,,0.00,VWS V14.01,2013-03-14 23:18:00,
2013-03-15 01:23:00,56.5,37.0,29.43,SW,225,14.7,20.8,48,0.00,,,0.00,VWS V14.01,2013-03-14 23:23:00,
2013-03-15 01:28:00,56.5,36.5,29.43,South,180,11.6,16.7,47,0.00,,,0.00,VWS V14.01,2013-03-14 23:28:00,
2013-03-15 01:33:00,56.5,36.5,29.43,SSW,202,22.3,22.3,47,0.00,,,0.00,VWS V14.01,2013-03-14 23:33:00,
2013-03-15 01:38:00,56.5,36.5,29.43,SSW,202,16.3,18.1,47,0.00,,,0.00,VWS V14.01,2013-03-14 23:38:00,
2013-03-15 01:43:00,56.7,36.1,29.44,SSW,202,15.8,15.8,46,0.00,,,0.00,VWS V14.01,2013-03-14 23:43:00,
2013-03-15 01:49:00,56.7,36.7,29.44,SW,225,4.9,13.1,47,0.00,,,0.00,VWS V14.01,2013-03-14 23:49:00,
2013-03-15 01:54:00,56.5,36.5,29.44,SSW,202,10.2,12.5,47,0.00,,,0.00,VWS V14.01,2013-03-14 23:54:00,
2013-03-15 01:59:00,56.3,37.9,29.44,SW,225,14.7,14.7,50,0.00,,,0.00,VWS V14.01,2013-03-14 23:59:00,
2013-03-15 02:04:00,56.3,37.4,29.44,SSW,202,9.8,9.8,49,0.00,,,0.00,VWS V14.01,2013-03-15 00:04:00,
2013-03-15 02:09:00,56.3,37.4,29.44,SSW,202,9.8,9.8,49,0.00,,,0.00,VWS V14.01,2013-03-15 00:09:00,
2013-03-15 02:14:00,56.1,37.7,29.44,South,180,7.8,7.8,50,0.00,,,0.00,VWS V14.01,2013-03-15 00:14:00,
2013-03-15 02:19:00,55.9,37.5,29.44,South,180,4.6,4.6,50,0.00,,,0.00,VWS V14.01,2013-03-15 00:19:00,
2013-03-15 02:24:00,55.9,38.0,29.43,South,180,7.1,7.8,51,0.00,,,0.00,VWS V14.01,2013-03-15 00:24:00,
2013-03-15 02:30:00,55.9,37.5,29.44,SSW,202,9.1,9.1,50,0.00,,,0.00,VWS V14.01,2013-03-15 00:30:00,
2013-03-15 02:35:00,55.9,38.0,29.44,SSW,202,2.9,4.2,51,0.00,,,0.00,VWS V14.01,2013-03-15 00:35:00,
2013-03-15 02:40:00,55.6,37.7,29.44,South,180,5.3,8.9,51,0.00,,,0.00,VWS V14.01,2013-03-15 00:40:00,
2013-03-15 02:45:00,55.6,38.2,29.44,SSW,202,9.1,9.1,52,0.00,,,0.00,VWS V14.01,2013-03-15 00:45:00,
2013-03-15 02:50:00,55.4,38.5,29.44,WNW,292,6.4,6.4,53,0.00,,,0.00,VWS V14.01,2013-03-15 00:50:00,
2013-03-15 02:55:00,55.0,38.2,29.44,SSE,158,0.2,0.2,53,0.00,,,0.00,VWS V14.01,2013-03-15 00:55:00,
2013-03-15 03:00:00,55.0,38.2,29.44,West,270,13.4,13.4,53,0.00,,,0.00,VWS V14.01,2013-03-15 01:00:00,
2013-03-15 03:05:00,54.9,38.1,29.44,SW,225,8.2,9.1,53,0.00,,,0.00,VWS V14.01,2013-03-15 01:05:00,
2013-03-15 03:10:00,54.9,38.5,29.44,SSW,202,3.5,10.2,54,0.00,,,0.00,VWS V14.01,2013-03-15 01:10:00,
2013-03-15 03:15:00,54.7,38.4,29.44,SSW,202,0.0,0.0,54,0.00,,,0.00,VWS V14.01,2013-03-15 01:15:00,
2013-03-15 03:20:00,54.5,38.2,29.43,West,270,0.8,0.8,54,0.00,,,0.00,VWS V14.01,2013-03-15 01:20:00,
2013-03-15 03:25:00,54.5,38.6,29.44,SSW,202,9.1,12.7,55,0.00,,,0.00,VWS V14.01,2013-03-15 01:25:00,
2013-03-15 03:31:00,54.5,38.6,29.44,SSW,202,2.2,2.2,55,0.00,,,0.00,VWS V14.01,2013-03-15 01:31:00,
2013-03-15 03:36:00,54.5,38.6,29.44,SW,225,0.0,0.0,55,0.00,,,0.00,VWS V14.01,2013-03-15 01:36:00,
2013-03-15 03:41:00,54.5,38.6,29.44,SW,225,8.2,10.5,55,0.00,,,0.00,VWS V14.01,2013-03-15 01:41:00,
2013-03-15 03:46:00,54.5,39.1,29.44,SW,225,7.1,7.1,56,0.00,,,0.00,VWS V14.01,2013-03-15 01:46:00,
2013-03-15 03:51:00,54.5,38.6,29.43,South,180,0.0,0.0,55,0.00,,,0.00,VWS V14.01,2013-03-15 01:51:00,
2013-03-15 03:56:00,54.5,38.6,29.44,WSW,248,0.4,4.4,55,0.00,,,0.00,VWS V14.01,2013-03-15 01:56:00,
2013-03-15 04:02:00,54.5,39.1,29.44,SW,225,6.0,7.3,56,0.00,,,0.00,VWS V14.01,2013-03-15 02:02:00,
2013-03-15 04:07:00,54.3,39.4,29.44,SW,225,9.6,10.2,57,0.00,,,0.00,VWS V14.01,2013-03-15 02:07:00,
2013-03-15 04:12:00,54.3,39.4,29.44,SW,225,8.7,8.7,57,0.00,,,0.00,VWS V14.01,2013-03-15 02:12:00,
2013-03-15 04:18:00,54.3,39.4,29.43,SSW,202,0.2,0.2,57,0.00,,,0.00,VWS V14.01,2013-03-15 02:18:00,
2013-03-15 04:23:00,54.1,39.6,29.43,SW,225,10.2,10.2,58,0.00,,,0.00,VWS V14.01,2013-03-15 02:23:00,
2013-03-15 04:28:00,54.1,39.6,29.43,WSW,248,8.9,8.9,58,0.00,,,0.00,VWS V14.01,2013-03-15 02:28:00,
2013-03-15 04:33:00,54.1,39.6,29.43,SSW,202,14.0,15.8,58,0.00,,,0.00,VWS V14.01,2013-03-15 02:33:00,
2013-03-15 04:38:00,54.5,39.6,29.43,SW,225,22.3,22.3,57,0.00,,,0.00,VWS V14.01,2013-03-15 02:38:00,
2013-03-15 04:43:00,54.5,39.6,29.43,South,180,15.4,18.7,57,0.00,,,0.00,VWS V14.01,2013-03-15 02:43:00,
2013-03-15 04:48:00,54.5,39.6,29.42,SSW,202,22.8,22.8,57,0.00,,,0.00,VWS V14.01,2013-03-15 02:48:00,
2013-03-15 04:53:00,54.7,39.3,29.42,South,180,11.1,17.2,56,0.00,,,0.00,VWS V14.01,2013-03-15 02:53:00,
2013-03-15 04:58:00,54.5,39.6,29.41,South,180,14.3,14.3,57,0.00,,,0.00,VWS V14.01,2013-03-15 02:58:00,
2013-03-15 05:04:00,54.5,40.4,29.41,SSW,202,11.4,12.0,59,0.00,,,0.00,VWS V14.01,2013-03-15 03:04:00,
2013-03-15 05:09:00,54.1,40.9,29.42,SW,225,7.8,12.7,61,0.00,,,0.00,VWS V14.01,2013-03-15 03:09:00,
2013-03-15 05:14:00,53.8,41.1,29.42,SSE,158,13.4,13.4,62,0.00,,,0.00,VWS V14.01,2013-03-15 03:14:00,
2013-03-15 05:19:00,53.6,41.3,29.42,SSW,202,10.9,10.9,63,0.00,,,0.00,VWS V14.01,2013-03-15 03:19:00,
2013-03-15 05:24:00,53.6,41.3,29.42,SE,135,1.7,6.7,63,0.00,,,0.00,VWS V14.01,2013-03-15 03:24:00,
2013-03-15 05:29:00,53.4,41.1,29.42,SSW,202,8.5,13.8,63,0.00,,,0.00,VWS V14.01,2013-03-15 03:29:00,
2013-03-15 05:34:00,53.6,40.5,29.42,SSW,202,13.4,13.4,61,0.00,,,0.00,VWS V14.01,2013-03-15 03:34:00,
2013-03-15 05:39:00,54.0,40.0,29.43,SSW,202,7.6,10.7,59,0.00,,,0.00,VWS V14.01,2013-03-15 03:39:00,
2013-03-15 05:44:00,53.8,40.2,29.43,SSW,202,10.5,10.5,60,0.00,,,0.00,VWS V14.01,2013-03-15 03:44:00,
2013-03-15 05:50:00,53.8,40.2,29.43,SSW,202,10.2,17.0,60,0.00,,,0.00,VWS V14.01,2013-03-15 03:50:00,
2013-03-15 05:55:00,53.8,39.8,29.43,WSW,248,7.8,7.8,59,0.00,,,0.00,VWS V14.01,2013-03-15 03:55:00,
2013-03-15 06:00:00,53.8,39.8,29.42,SW,225,7.6,7.6,59,0.00,,,0.00,VWS V14.01,2013-03-15 04:00:00,
2013-03-15 06:01:00,53.8,39.8,29.42,SW,225,6.9,12.7,59,0.00,,,0.00,VWS V14.01,2013-03-15 04:01:00,
2013-03-15 06:02:00,53.8,39.8,29.42,SSW,202,6.0,6.0,59,0.00,,,0.00,VWS V14.01,2013-03-15 04:02:00,
2013-03-15 06:03:00,53.6,39.6,29.42,SSW,202,3.3,7.6,59,0.00,,,0.00,VWS V14.01,2013-03-15 04:03:00,
2013-03-15 06:08:00,53.6,40.0,29.42,South,180,6.2,11.8,60,0.00,,,0.00,VWS V14.01,2013-03-15 04:08:00,
2013-03-15 06:13:00,53.6,39.6,29.42,SW,225,12.9,12.9,59,0.00,,,0.00,VWS V14.01,2013-03-15 04:13:00,
2013-03-15 06:18:00,53.8,39.3,29.42,SSW,202,14.7,14.7,58,0.00,,,0.00,VWS V14.01,2013-03-15 04:18:00,
2013-03-15 06:23:00,53.8,39.8,29.42,SSW,202,10.7,10.7,59,0.00,,,0.00,VWS V14.01,2013-03-15 04:23:00,
2013-03-15 06:28:00,53.6,39.6,29.42,SSW,202,13.8,13.8,59,0.00,,,0.00,VWS V14.01,2013-03-15 04:28:00,
2013-03-15 06:34:00,53.8,39.8,29.41,South,180,10.0,10.0,59,0.00,,,0.00,VWS V14.01,2013-03-15 04:34:00,
2013-03-15 06:39:00,54.1,39.2,29.41,SSW,202,5.5,5.5,57,0.00,,,0.00,VWS V14.01,2013-03-15 04:39:00,
2013-03-15 06:44:00,54.5,39.1,29.42,SW,225,7.6,7.6,56,0.00,,,0.00,VWS V14.01,2013-03-15 04:44:00,
2013-03-15 06:49:00,54.5,39.1,29.42,SW,225,8.5,10.2,56,0.00,,,0.00,VWS V14.01,2013-03-15 04:49:00,
2013-03-15 06:54:00,54.5,39.6,29.42,SSW,202,12.0,12.0,57,0.00,,,0.00,VWS V14.01,2013-03-15 04:54:00,
2013-03-15 06:59:00,54.7,39.7,29.43,SSW,202,10.2,10.2,57,0.00,,,0.00,VWS V14.01,2013-03-15 04:59:00,
2013-03-15 07:04:00,54.9,39.5,29.42,SW,225,13.4,13.4,56,0.00,,,0.00,VWS V14.01,2013-03-15 05:04:00,
2013-03-15 07:09:00,55.0,39.6,29.42,SSW,202,13.8,13.8,56,0.00,,,0.00,VWS V14.01,2013-03-15 05:09:00,
2013-03-15 07:14:00,55.0,39.1,29.42,South,180,14.7,14.7,55,0.00,,,0.00,VWS V14.01,2013-03-15 05:14:00,
2013-03-15 07:20:00,55.4,39.5,29.42,WSW,248,10.0,10.0,55,0.00,,,0.00,VWS V14.01,2013-03-15 05:20:00,
2013-03-15 07:25:00,55.4,39.5,29.42,South,180,9.8,9.8,55,0.00,,,0.00,VWS V14.01,2013-03-15 05:25:00,
2013-03-15 07:30:00,55.6,39.7,29.42,South,180,3.3,8.2,55,0.00,,,0.00,VWS V14.01,2013-03-15 05:30:00,
2013-03-15 07:35:00,55.6,39.2,29.43,SSW,202,9.8,10.0,54,0.00,,,0.00,VWS V14.01,2013-03-15 05:35:00,
2013-03-15 07:40:00,55.9,39.0,29.42,SW,225,12.0,12.0,53,0.00,,,0.00,VWS V14.01,2013-03-15 05:40:00,
2013-03-15 07:45:00,55.9,39.0,29.42,SW,225,10.9,10.9,53,0.00,,,0.00,VWS V14.01,2013-03-15 05:45:00,
2013-03-15 07:50:00,56.5,39.5,29.43,West,270,3.5,11.1,53,0.00,,,0.00,VWS V14.01,2013-03-15 05:50:00,
2013-03-15 07:56:00,56.5,39.5,29.44,WSW,248,6.9,9.1,53,0.00,,,0.00,VWS V14.01,2013-03-15 05:56:00,
2013-03-15 08:01:00,56.5,39.5,29.44,SSW,202,5.8,11.6,53,0.00,,,0.00,VWS V14.01,2013-03-15 06:01:00,
2013-03-15 08:06:00,56.7,40.2,29.44,SW,225,6.2,9.6,54,0.00,,,0.00,VWS V14.01,2013-03-15 06:06:00,
2013-03-15 08:11:00,56.7,40.2,29.44,SSW,202,5.5,11.8,54,0.00,,,0.00,VWS V14.01,2013-03-15 06:11:00,
2013-03-15 08:16:00,57.0,40.0,29.44,SSE,158,14.3,16.3,53,0.00,,,0.00,VWS V14.01,2013-03-15 06:16:00,
2013-03-15 08:21:00,57.0,40.0,29.44,South,180,14.9,16.3,53,0.00,,,0.00,VWS V14.01,2013-03-15 06:21:00,
2013-03-15 08:26:00,57.0,40.0,29.45,SSW,202,8.9,12.7,53,0.00,,,0.00,VWS V14.01,2013-03-15 06:26:00,
2013-03-15 08:31:00,57.4,40.9,29.45,SW,225,12.9,12.9,54,0.00,,,0.00,VWS V14.01,2013-03-15 06:31:00,
2013-03-15 08:36:00,57.6,40.1,29.45,SSW,202,13.4,13.8,52,0.00,,,0.00,VWS V14.01,2013-03-15 06:36:00,
2013-03-15 08:41:00,57.6,40.1,29.45,South,180,5.3,14.5,52,0.00,,,0.00,VWS V14.01,2013-03-15 06:41:00,
2013-03-15 08:46:00,57.6,40.1,29.45,SSW,202,8.9,16.1,52,0.00,,,0.00,VWS V14.01,2013-03-15 06:46:00,
2013-03-15 08:51:00,57.9,40.4,29.45,SSW,202,4.2,4.2,52,0.00,,,0.00,VWS V14.01,2013-03-15 06:51:00,
2013-03-15 08:56:00,58.1,40.5,29.46,West,270,5.1,5.1,52,0.00,,,0.00,VWS V14.01,2013-03-15 06:56:00,
2013-03-15 09:02:00,58.3,40.2,29.46,WSW,248,0.4,0.4,51,0.00,,,0.00,VWS V14.01,2013-03-15 07:02:00,
2013-03-15 09:07:00,58.8,40.7,29.46,West,270,0.0,0.0,51,0.00,,,0.00,VWS V14.01,2013-03-15 07:07:00,
2013-03-15 09:12:00,59.0,40.4,29.47,South,180,0.0,0.0,50,0.00,,,0.00,VWS V14.01,2013-03-15 07:12:00,
2013-03-15 09:17:00,59.2,41.6,29.47,SSW,202,0.0,6.2,52,0.00,,,0.00,VWS V14.01,2013-03-15 07:17:00,
2013-03-15 09:22:00,59.4,41.8,29.47,WSW,248,4.4,4.4,52,0.00,,,0.00,VWS V14.01,2013-03-15 07:22:00,
2013-03-15 09:27:00,59.9,41.2,29.48,SW,225,0.0,0.0,50,0.00,,,0.00,VWS V14.01,2013-03-15 07:27:00,
2013-03-15 09:32:00,59.4,40.7,29.47,SSE,158,0.0,0.0,50,0.00,,,0.00,VWS V14.01,2013-03-15 07:32:00,
2013-03-15 09:37:00,59.9,41.7,29.48,SSW,202,0.0,0.0,51,0.00,,,0.00,VWS V14.01,2013-03-15 07:37:00,
2013-03-15 09:43:00,59.9,41.2,29.48,South,180,4.6,4.6,50,0.00,,,0.00,VWS V14.01,2013-03-15 07:43:00,
2013-03-15 09:48:00,59.7,41.0,29.49,South,180,0.0,0.0,50,0.00,,,0.00,VWS V14.01,2013-03-15 07:48:00,
2013-03-15 09:53:00,59.4,41.2,29.49,WNW,292,0.0,0.0,51,0.00,,,0.00,VWS V14.01,2013-03-15 07:53:00,
2013-03-15 09:58:00,59.4,42.2,29.49,West,270,0.2,0.2,53,0.00,,,0.00,VWS V14.01,2013-03-15 07:58:00,
2013-03-15 10:03:00,58.5,40.9,29.50,SW,225,11.4,11.4,52,0.00,,,0.00,VWS V14.01,2013-03-15 08:03:00,
2013-03-15 10:08:00,58.8,41.2,29.50,SW,225,4.4,4.4,52,0.00,,,0.00,VWS V14.01,2013-03-15 08:08:00,
2013-03-15 10:13:00,58.5,40.4,29.49,WSW,248,6.7,6.7,51,0.00,,,0.00,VWS V14.01,2013-03-15 08:13:00,
2013-03-15 10:19:00,58.6,41.0,29.49,WSW,248,0.4,0.4,52,0.00,,,0.00,VWS V14.01,2013-03-15 08:19:00,
2013-03-15 10:24:00,59.9,41.2,29.49,SW,225,11.4,11.4,50,0.00,,,0.00,VWS V14.01,2013-03-15 08:24:00,
2013-03-15 10:29:00,59.5,40.3,29.49,SW,225,0.0,0.0,49,0.00,,,0.00,VWS V14.01,2013-03-15 08:29:00,
2013-03-15 10:34:00,59.4,41.2,29.50,WSW,248,2.4,2.4,51,0.00,,,0.00,VWS V14.01,2013-03-15 08:34:00,
2013-03-15 10:39:00,59.4,41.2,29.49,SSW,202,0.4,0.4,51,0.00,,,0.00,VWS V14.01,2013-03-15 08:39:00,
2013-03-15 10:44:00,60.1,40.9,29.49,WNW,292,17.8,17.8,49,0.00,,,0.00,VWS V14.01,2013-03-15 08:44:00,
2013-03-15 10:49:00,60.1,40.9,29.50,SSE,158,0.0,2.0,49,0.00,,,0.00,VWS V14.01,2013-03-15 08:49:00,
2013-03-15 10:55:00,59.9,40.1,29.50,West,270,11.1,11.4,48,0.00,,,0.00,VWS V14.01,2013-03-15 08:55:00,
2013-03-15 11:00:00,59.9,40.7,29.49,WSW,248,0.4,4.9,49,0.00,,,7.61,VWS V14.01,2013-03-15 09:00:00,
2013-03-15 11:05:00,60.1,40.9,29.50,SSW,202,8.2,8.2,49,0.00,,,0.00,VWS V14.01,2013-03-15 09:05:00,
2013-03-15 11:10:00,59.4,39.7,29.50,WNW,292,6.2,6.2,48,0.00,,,0.00,VWS V14.01,2013-03-15 09:10:00,
2013-03-15 11:15:00,59.2,41.1,29.50,SW,225,8.9,8.9,51,0.00,,,0.00,VWS V14.01,2013-03-15 09:15:00,
2013-03-15 11:20:00,58.5,41.4,29.50,West,270,1.7,1.7,53,0.00,,,0.00,VWS V14.01,2013-03-15 09:20:00,
2013-03-15 11:25:00,57.4,41.3,29.50,West,270,4.2,4.2,55,0.00,,,0.00,VWS V14.01,2013-03-15 09:25:00,
2013-03-15 11:30:00,57.7,41.2,29.50,SW,225,11.8,11.8,54,0.00,,,0.00,VWS V14.01,2013-03-15 09:30:00,
2013-03-15 11:35:00,58.1,41.0,29.50,West,270,3.3,3.3,53,0.00,,,0.00,VWS V14.01,2013-03-15 09:35:00,
2013-03-15 11:40:00,58.5,41.4,29.51,West,270,2.2,2.2,53,0.00,,,0.00,VWS V14.01,2013-03-15 09:40:00,
2013-03-15 11:46:00,58.6,40.5,29.51,SW,225,6.0,10.7,51,0.00,,,0.00,VWS V14.01,2013-03-15 09:46:00,
2013-03-15 11:51:00,59.0,41.4,29.51,WSW,248,19.9,19.9,52,0.00,,,0.00,VWS V14.01,2013-03-15 09:51:00,
2013-03-15 11:56:00,58.6,41.0,29.50,SW,225,10.7,10.7,52,0.00,,,0.00,VWS V14.01,2013-03-15 09:56:00,
2013-03-15 12:01:00,59.2,42.1,29.50,West,270,2.2,2.2,53,0.00,,,0.00,VWS V14.01,2013-03-15 10:01:00,
2013-03-15 12:06:00,58.3,42.2,29.51,West,270,8.9,9.1,55,0.00,,,0.00,VWS V14.01,2013-03-15 10:06:00,
2013-03-15 12:11:00,58.3,42.2,29.51,WSW,248,5.5,6.0,55,0.00,,,0.00,VWS V14.01,2013-03-15 10:11:00,
2013-03-15 12:16:00,59.0,41.9,29.51,SSW,202,6.9,6.9,53,0.00,,,0.00,VWS V14.01,2013-03-15 10:16:00,
2013-03-15 12:21:00,59.0,41.4,29.52,WNW,292,4.6,10.0,52,0.00,,,0.00,VWS V14.01,2013-03-15 10:21:00,
2013-03-15 12:26:00,59.0,40.9,29.51,SSW,202,8.0,9.1,51,0.00,,,0.00,VWS V14.01,2013-03-15 10:26:00,
2013-03-15 12:31:00,59.4,41.8,29.51,WSW,248,0.0,0.0,52,0.00,,,0.00,VWS V14.01,2013-03-15 10:31:00,
2013-03-15 12:36:00,59.9,40.7,29.52,SSW,202,11.8,13.6,49,0.00,,,0.00,VWS V14.01,2013-03-15 10:36:00,
2013-03-15 12:41:00,59.5,40.3,29.52,SW,225,17.0,17.0,49,0.00,,,0.00,VWS V14.01,2013-03-15 10:41:00,
2013-03-15 12:47:00,59.4,40.7,29.52,South,180,12.7,12.7,50,0.00,,,0.00,VWS V14.01,2013-03-15 10:47:00,
2013-03-15 12:52:00,59.4,40.7,29.52,SSW,202,2.4,2.4,50,0.00,,,0.00,VWS V14.01,2013-03-15 10:52:00,
2013-03-15 12:57:00,59.7,40.5,29.52,SSW,202,6.9,6.9,49,0.00,,,0.00,VWS V14.01,2013-03-15 10:57:00,
2013-03-15 13:02:00,59.4,39.7,29.52,SSW,202,12.3,12.3,48,0.00,,,0.00,VWS V14.01,2013-03-15 11:02:00,
2013-03-15 13:07:00,59.2,40.0,29.52,SSW,202,5.8,5.8,49,0.00,,,0.00,VWS V14.01,2013-03-15 11:07:00,
2013-03-15 13:12:00,59.0,40.4,29.51,SSW,202,10.5,13.6,50,0.00,,,0.00,VWS V14.01,2013-03-15 11:12:00,
2013-03-15 13:17:00,58.6,42.5,29.52,SW,225,6.0,7.3,55,0.00,,,0.00,VWS V14.01,2013-03-15 11:17:00,
2013-03-15 13:23:00,59.5,43.3,29.52,WNW,292,9.6,9.6,55,0.00,,,0.00,VWS V14.01,2013-03-15 11:23:00,
2013-03-15 13:28:00,59.0,43.3,29.52,West,270,6.9,9.3,56,0.00,,,0.00,VWS V14.01,2013-03-15 11:28:00,
2013-03-15 13:33:00,57.4,43.2,29.52,WNW,292,8.5,12.9,59,0.00,,,0.00,VWS V14.01,2013-03-15 11:33:00,
2013-03-15 13:38:00,56.5,41.9,29.53,West,270,10.7,10.7,58,0.00,,,0.00,VWS V14.01,2013-03-15 11:38:00,
2013-03-15 13:43:00,55.9,41.8,29.53,WNW,292,7.8,7.8,59,0.00,,,0.00,VWS V14.01,2013-03-15 11:43:00,
2013-03-15 13:48:00,55.6,40.6,29.53,WNW,292,15.8,15.8,57,0.00,,,0.00,VWS V14.01,2013-03-15 11:48:00,
2013-03-15 13:53:00,55.4,40.4,29.54,NNW,338,7.3,12.7,57,0.00,,,0.00,VWS V14.01,2013-03-15 11:53:00,
2013-03-15 13:58:00,55.2,40.7,29.54,WSW,248,6.0,6.0,58,0.00,,,0.00,VWS V14.01,2013-03-15 11:58:00,
2013-03-15 14:03:00,55.0,40.0,29.54,West,270,9.1,9.1,57,0.00,,,0.00,VWS V14.01,2013-03-15 12:03:00,
2013-03-15 14:09:00,54.7,39.7,29.54,West,270,6.7,6.9,57,0.00,,,0.00,VWS V14.01,2013-03-15 12:09:00,
2013-03-15 14:14:00,55.0,40.0,29.53,SSW,202,7.1,14.3,57,0.00,,,0.00,VWS V14.01,2013-03-15 12:14:00,
2013-03-15 14:19:00,55.0,40.5,29.54,West,270,4.6,4.6,58,0.00,,,0.00,VWS V14.01,2013-03-15 12:19:00,
2013-03-15 14:24:00,54.7,40.2,29.53,WNW,292,0.0,0.0,58,0.00,,,0.00,VWS V14.01,2013-03-15 12:24:00,
2013-03-15 14:29:00,54.7,39.3,29.53,SW,225,0.0,0.0,56,0.00,,,0.00,VWS V14.01,2013-03-15 12:29:00,
2013-03-15 14:34:00,54.7,37.4,29.53,WSW,248,5.3,5.3,52,0.00,,,0.00,VWS V14.01,2013-03-15 12:34:00,
2013-03-15 14:39:00,55.9,39.0,29.52,WSW,248,0.6,2.9,53,0.00,,,0.00,VWS V14.01,2013-03-15 12:39:00,
2013-03-15 14:44:00,56.8,39.3,29.52,SSW,202,8.5,9.8,52,0.00,,,0.00,VWS V14.01,2013-03-15 12:44:00,
2013-03-15 14:50:00,57.4,39.9,29.52,SW,225,12.5,12.5,52,0.00,,,0.00,VWS V14.01,2013-03-15 12:50:00,
2013-03-15 14:55:00,57.2,38.2,29.51,SW,225,5.5,8.7,49,0.00,,,0.00,VWS V14.01,2013-03-15 12:55:00,
2013-03-15 15:00:00,57.6,38.6,29.52,West,270,0.0,2.4,49,0.00,,,0.00,VWS V14.01,2013-03-15 13:00:00,
2013-03-15 15:05:00,57.4,37.8,29.52,West,270,5.1,12.7,48,0.00,,,0.00,VWS V14.01,2013-03-15 13:05:00,
2013-03-15 15:10:00,57.2,37.7,29.52,SW,225,4.2,10.2,48,0.00,,,0.00,VWS V14.01,2013-03-15 13:10:00,
2013-03-15 15:15:00,57.4,37.8,29.52,SW,225,0.8,1.7,48,0.00,,,0.00,VWS V14.01,2013-03-15 13:15:00,
2013-03-15 15:20:00,58.1,38.5,29.52,SSW,202,7.1,11.1,48,0.00,,,0.00,VWS V14.01,2013-03-15 13:20:00,
2013-03-15 15:25:00,57.9,38.3,29.52,WSW,248,3.3,6.2,48,0.00,,,0.00,VWS V14.01,2013-03-15 13:25:00,
2013-03-15 15:31:00,58.1,38.0,29.52,South,180,9.6,9.6,47,0.00,,,0.00,VWS V14.01,2013-03-15 13:31:00,
2013-03-15 15:36:00,57.9,37.8,29.52,South,180,16.1,16.1,47,0.00,,,0.00,VWS V14.01,2013-03-15 13:36:00,
2013-03-15 15:41:00,57.9,37.8,29.52,West,270,6.2,6.2,47,0.00,,,0.00,VWS V14.01,2013-03-15 13:41:00,
2013-03-15 15:46:00,57.9,37.8,29.52,SSW,202,6.4,11.1,47,0.00,,,0.00,VWS V14.01,2013-03-15 13:46:00,
2013-03-15 15:51:00,58.1,38.0,29.52,West,270,0.0,2.2,47,0.00,,,0.00,VWS V14.01,2013-03-15 13:51:00,
2013-03-15 15:56:00,58.6,39.0,29.52,WNW,292,0.0,0.0,48,0.00,,,0.00,VWS V14.01,2013-03-15 13:56:00,
2013-03-15 16:01:00,58.6,38.4,29.52,SW,225,3.1,3.3,47,0.00,,,0.00,VWS V14.01,2013-03-15 14:01:00,
2013-03-15 16:06:00,58.6,38.4,29.52,West,270,1.3,4.9,47,0.00,,,0.00,VWS V14.01,2013-03-15 14:06:00,
2013-03-15 16:11:00,59.0,38.8,29.52,SSW,202,11.4,11.4,47,0.00,,,0.00,VWS V14.01,2013-03-15 14:11:00,
2013-03-15 16:17:00,58.3,38.1,29.52,WSW,248,2.6,4.4,47,0.00,,,0.00,VWS V14.01,2013-03-15 14:17:00,
2013-03-15 16:22:00,59.0,39.3,29.53,NNW,338,0.0,0.0,48,0.00,,,0.00,VWS V14.01,2013-03-15 14:22:00,
2013-03-15 16:27:00,59.2,38.4,29.52,NNW,338,3.3,15.8,46,0.00,,,0.00,VWS V14.01,2013-03-15 14:27:00,
2013-03-15 16:32:00,59.0,38.2,29.52,South,180,1.1,1.1,46,0.00,,,0.00,VWS V14.01,2013-03-15 14:32:00,
2013-03-15 16:37:00,59.0,38.2,29.53,WSW,248,2.6,4.2,46,0.00,,,0.00,VWS V14.01,2013-03-15 14:37:00,
2013-03-15 16:42:00,59.0,39.3,29.52,WSW,248,15.6,15.6,48,0.00,,,0.00,VWS V14.01,2013-03-15 14:42:00,
2013-03-15 16:47:00,58.6,39.0,29.53,WSW,248,0.0,0.0,48,0.00,,,0.00,VWS V14.01,2013-03-15 14:47:00,
2013-03-15 16:53:00,58.3,38.7,29.53,SSW,202,3.5,3.5,48,0.00,,,0.00,VWS V14.01,2013-03-15 14:53:00,
2013-03-15 16:58:00,58.3,38.7,29.53,SSE,158,0.0,1.7,48,0.00,,,0.00,VWS V14.01,2013-03-15 14:58:00,
2013-03-15 17:03:00,58.3,39.2,29.54,SSW,202,6.9,6.9,49,0.00,,,0.00,VWS V14.01,2013-03-15 15:03:00,
2013-03-15 17:08:00,58.1,39.0,29.54,West,270,3.3,3.3,49,0.00,,,0.00,VWS V14.01,2013-03-15 15:08:00,
2013-03-15 17:13:00,57.7,38.7,29.54,SW,225,11.4,11.4,49,0.00,,,0.00,VWS V14.01,2013-03-15 15:13:00,
2013-03-15 17:18:00,56.8,39.3,29.55,West,270,6.9,6.9,52,0.00,,,0.00,VWS V14.01,2013-03-15 15:18:00,
2013-03-15 17:23:00,55.6,39.2,29.55,NNW,338,1.3,7.1,54,0.00,,,0.00,VWS V14.01,2013-03-15 15:23:00,
2013-03-15 17:28:00,54.9,39.5,29.55,West,270,9.8,9.8,56,0.00,,,0.00,VWS V14.01,2013-03-15 15:28:00,
2013-03-15 17:34:00,54.5,39.6,29.55,NNW,338,4.6,5.5,57,0.00,,,0.00,VWS V14.01,2013-03-15 15:34:00,
2013-03-15 17:39:00,54.3,38.9,29.56,NNW,338,6.4,6.4,56,0.00,,,0.00,VWS V14.01,2013-03-15 15:39:00,
2013-03-15 17:44:00,53.6,38.3,29.55,NW,315,8.9,12.0,56,0.00,,,0.00,VWS V14.01,2013-03-15 15:44:00,
2013-03-15 17:49:00,53.1,38.2,29.55,NW,315,4.4,7.1,57,0.00,,,0.00,VWS V14.01,2013-03-15 15:49:00,
2013-03-15 17:54:00,52.7,38.3,29.56,NW,315,5.8,8.2,58,0.00,,,0.00,VWS V14.01,2013-03-15 15:54:00,
2013-03-15 17:59:00,52.3,38.4,29.56,WNW,292,4.2,5.3,59,0.00,,,0.00,VWS V14.01,2013-03-15 15:59:00,
2013-03-15 18:04:00,52.3,38.4,29.56,WNW,292,4.4,4.4,59,0.00,,,0.00,VWS V14.01,2013-03-15 16:04:00,
2013-03-15 18:09:00,52.0,38.1,29.55,NNW,338,2.6,6.7,59,0.00,,,0.00,VWS V14.01,2013-03-15 16:09:00,
2013-03-15 18:14:00,52.0,38.5,29.56,WNW,292,1.1,1.1,60,0.00,,,0.00,VWS V14.01,2013-03-15 16:14:00,
2013-03-15 18:19:00,52.0,38.5,29.56,WNW,292,0.0,0.0,60,0.00,,,0.00,VWS V14.01,2013-03-15 16:19:00,
2013-03-15 18:25:00,52.0,38.5,29.56,WNW,292,0.0,0.0,60,0.00,,,0.00,VWS V14.01,2013-03-15 16:25:00,
2013-03-15 18:30:00,51.8,38.8,29.56,WNW,292,0.0,0.0,61,0.00,,,0.00,VWS V14.01,2013-03-15 16:30:00,
2013-03-15 18:35:00,51.8,38.8,29.56,WNW,292,0.6,0.6,61,0.00,,,0.00,VWS V14.01,2013-03-15 16:35:00,
2013-03-15 18:40:00,51.8,38.8,29.56,West,270,0.0,0.0,61,0.00,,,0.00,VWS V14.01,2013-03-15 16:40:00,
2013-03-15 18:45:00,51.8,38.8,29.56,WSW,248,0.0,0.0,61,0.00,,,0.00,VWS V14.01,2013-03-15 16:45:00,
2013-03-15 18:50:00,51.8,38.8,29.56,West,270,0.0,0.0,61,0.00,,,0.00,VWS V14.01,2013-03-15 16:50:00,
2013-03-15 18:55:00,51.8,38.8,29.57,West,270,0.0,0.0,61,0.00,,,0.00,VWS V14.01,2013-03-15 16:55:00,
2013-03-15 19:00:00,51.8,39.2,29.57,West,270,1.7,1.7,62,0.00,,,0.00,VWS V14.01,2013-03-15 17:00:00,
2013-03-15 19:05:00,51.4,38.8,29.58,NW,315,0.0,0.0,62,0.00,,,0.00,VWS V14.01,2013-03-15 17:05:00,
2013-03-15 19:11:00,51.4,39.2,29.57,West,270,0.0,0.0,63,0.00,,,0.00,VWS V14.01,2013-03-15 17:11:00,
2013-03-15 19:16:00,51.4,39.2,29.57,WNW,292,0.6,4.6,63,0.00,,,0.00,VWS V14.01,2013-03-15 17:16:00,
2013-03-15 19:21:00,51.4,39.2,29.57,West,270,2.6,2.6,63,0.00,,,0.00,VWS V14.01,2013-03-15 17:21:00,
2013-03-15 19:26:00,51.3,38.7,29.57,West,270,3.1,3.1,62,0.00,,,0.00,VWS V14.01,2013-03-15 17:26:00,
2013-03-15 19:31:00,51.3,38.7,29.57,West,270,4.6,4.6,62,0.00,,,0.00,VWS V14.01,2013-03-15 17:31:00,
2013-03-15 19:36:00,51.3,38.3,29.58,WSW,248,8.0,8.0,61,0.00,,,0.00,VWS V14.01,2013-03-15 17:36:00,
2013-03-15 19:42:00,51.3,38.3,29.58,West,270,2.4,3.1,61,0.00,,,0.00,VWS V14.01,2013-03-15 17:42:00,
2013-03-15 19:47:00,51.3,37.9,29.58,WNW,292,1.3,4.6,60,0.00,,,0.00,VWS V14.01,2013-03-15 17:47:00,
2013-03-15 19:52:00,51.3,37.4,29.58,SSW,202,2.4,2.4,59,0.00,,,0.00,VWS V14.01,2013-03-15 17:52:00,
2013-03-15 19:57:00,51.3,37.4,29.58,WSW,248,0.0,0.0,59,0.00,,,0.00,VWS V14.01,2013-03-15 17:57:00,
2013-03-15 20:02:00,51.3,37.4,29.58,WSW,248,0.0,0.0,59,0.00,,,0.00,VWS V14.01,2013-03-15 18:02:00,
2013-03-15 20:07:00,51.1,37.2,29.58,West,270,0.0,0.0,59,0.00,,,0.00,VWS V14.01,2013-03-15 18:07:00,
2013-03-15 20:12:00,50.9,37.5,29.59,WNW,292,2.2,2.2,60,0.00,,,0.00,VWS V14.01,2013-03-15 18:12:00,
2013-03-15 20:17:00,50.9,37.5,29.59,West,270,5.5,8.0,60,0.00,,,0.00,VWS V14.01,2013-03-15 18:17:00,
2013-03-15 20:23:00,50.9,37.5,29.59,WSW,248,2.9,2.9,60,0.00,,,0.00,VWS V14.01,2013-03-15 18:23:00,
2013-03-15 20:28:00,50.9,37.5,29.59,West,270,4.4,4.6,60,0.00,,,0.00,VWS V14.01,2013-03-15 18:28:00,
2013-03-15 20:33:00,50.7,37.3,29.59,West,270,7.8,8.7,60,0.00,,,0.00,VWS V14.01,2013-03-15 18:33:00,
2013-03-15 20:38:00,50.7,37.7,29.59,West,270,3.1,5.5,61,0.00,,,0.00,VWS V14.01,2013-03-15 18:38:00,
2013-03-15 20:43:00,50.7,37.7,29.60,West,270,8.2,10.5,61,0.00,,,0.00,VWS V14.01,2013-03-15 18:43:00,
2013-03-15 20:48:00,50.5,37.5,29.60,West,270,1.1,2.6,61,0.00,,,0.00,VWS V14.01,2013-03-15 18:48:00,
2013-03-15 20:53:00,50.5,37.5,29.60,SW,225,6.0,6.0,61,0.00,,,0.00,VWS V14.01,2013-03-15 18:53:00,
2013-03-15 20:59:00,50.5,37.5,29.60,West,270,6.7,6.7,61,0.00,,,0.00,VWS V14.01,2013-03-15 18:59:00,
2013-03-15 21:04:00,50.5,37.5,29.60,WSW,248,3.3,3.3,61,0.00,,,0.00,VWS V14.01,2013-03-15 19:04:00,
2013-03-15 21:09:00,50.5,37.5,29.60,West,270,1.5,1.5,61,0.00,,,0.00,VWS V14.01,2013-03-15 19:09:00,
2013-03-15 21:14:00,50.5,37.5,29.60,SW,225,2.6,9.3,61,0.00,,,0.00,VWS V14.01,2013-03-15 19:14:00,
2013-03-15 21:19:00,50.5,37.5,29.60,NNW,338,4.4,4.4,61,0.00,,,0.00,VWS V14.01,2013-03-15 19:19:00,
2013-03-15 21:24:00,50.4,37.8,29.60,WNW,292,3.5,3.5,62,0.00,,,0.00,VWS V14.01,2013-03-15 19:24:00,
2013-03-15 21:29:00,50.2,37.7,29.61,NW,315,0.0,4.0,62,0.00,,,0.00,VWS V14.01,2013-03-15 19:29:00,
2013-03-15 21:34:00,50.2,37.7,29.61,West,270,2.4,2.4,62,0.00,,,0.00,VWS V14.01,2013-03-15 19:34:00,
2013-03-15 21:39:00,50.2,37.7,29.61,West,270,2.9,2.9,62,0.00,,,0.00,VWS V14.01,2013-03-15 19:39:00,
2013-03-15 21:44:00,50.0,37.5,29.61,West,270,3.1,3.1,62,0.00,,,0.00,VWS V14.01,2013-03-15 19:44:00,
2013-03-15 21:49:00,50.0,37.9,29.62,West,270,3.8,3.8,63,0.00,,,0.00,VWS V14.01,2013-03-15 19:49:00,
2013-03-15 21:55:00,50.0,37.9,29.62,NW,315,0.0,0.0,63,0.00,,,0.00,VWS V14.01,2013-03-15 19:55:00,
2013-03-15 22:00:00,49.6,37.9,29.62,WNW,292,0.0,0.0,64,0.00,,,0.00,VWS V14.01,2013-03-15 20:00:00,
2013-03-15 22:05:00,49.6,37.9,29.62,WSW,248,0.0,0.0,64,0.00,,,0.00,VWS V14.01,2013-03-15 20:05:00,
2013-03-15 22:10:00,49.6,37.9,29.62,WNW,292,0.0,0.0,64,0.00,,,0.00,VWS V14.01,2013-03-15 20:10:00,
2013-03-15 22:15:00,49.8,38.1,29.62,West,270,2.6,2.6,64,0.00,,,0.00,VWS V14.01,2013-03-15 20:15:00,
2013-03-15 22:20:00,50.0,38.3,29.62,NW,315,2.2,2.2,64,0.00,,,0.00,VWS V14.01,2013-03-15 20:20:00,
2013-03-15 22:25:00,50.0,38.3,29.62,WNW,292,1.1,1.1,64,0.00,,,0.00,VWS V14.01,2013-03-15 20:25:00,
2013-03-15 22:30:00,50.0,38.3,29.62,WNW,292,9.8,9.8,64,0.00,,,0.00,VWS V14.01,2013-03-15 20:30:00,
2013-03-15 22:36:00,50.0,37.9,29.62,WNW,292,2.9,5.5,63,0.00,,,0.00,VWS V14.01,2013-03-15 20:36:00,
2013-03-15 22:41:00,49.8,37.7,29.62,WNW,292,0.0,0.0,63,0.00,,,0.00,VWS V14.01,2013-03-15 20:41:00,
2013-03-15 22:46:00,49.6,37.5,29.62,West,270,0.4,5.8,63,0.00,,,0.00,VWS V14.01,2013-03-15 20:46:00,
2013-03-15 22:51:00,49.5,37.0,29.61,West,270,3.1,3.1,62,0.00,,,0.00,VWS V14.01,2013-03-15 20:51:00,
2013-03-15 22:56:00,49.5,37.0,29.61,WNW,292,0.0,0.0,62,0.00,,,0.00,VWS V14.01,2013-03-15 20:56:00,
2013-03-15 23:01:00,49.3,36.8,29.61,NNW,338,7.3,7.3,62,0.00,,,0.00,VWS V14.01,2013-03-15 21:01:00,
2013-03-15 23:07:00,49.3,36.8,29.62,WSW,248,0.2,0.2,62,0.00,,,0.00,VWS V14.01,2013-03-15 21:07:00,
2013-03-15 23:12:00,49.3,36.8,29.62,NW,315,2.0,2.0,62,0.00,,,0.00,VWS V14.01,2013-03-15 21:12:00,
2013-03-15 23:17:00,49.3,36.8,29.62,NNW,338,4.0,5.3,62,0.00,,,0.00,VWS V14.01,2013-03-15 21:17:00,
2013-03-15 23:22:00,49.1,37.0,29.62,WNW,292,1.5,1.5,63,0.00,,,0.00,VWS V14.01,2013-03-15 21:22:00,
2013-03-15 23:27:00,49.1,37.0,29.62,West,270,0.4,0.4,63,0.00,,,0.00,VWS V14.01,2013-03-15 21:27:00,
2013-03-15 23:32:00,48.9,36.8,29.63,NNW,338,0.0,0.0,63,0.00,,,0.00,VWS V14.01,2013-03-15 21:32:00,
2013-03-15 23:37:00,48.9,37.2,29.63,WNW,292,0.6,0.6,64,0.00,,,0.00,VWS V14.01,2013-03-15 21:37:00,
2013-03-15 23:42:00,48.9,37.2,29.63,West,270,3.8,3.8,64,0.00,,,0.00,VWS V14.01,2013-03-15 21:42:00,
2013-03-15 23:48:00,49.1,37.0,29.63,WSW,248,1.5,1.5,63,0.00,,,0.00,VWS V14.01,2013-03-15 21:48:00,
2013-03-15 23:53:00,49.1,37.0,29.63,SW,225,0.0,0.0,63,0.00,,,0.00,VWS V14.01,2013-03-15 21:53:00,
2013-03-15 23:58:00,48.9,37.2,29.63,West,270,0.6,0.6,64,0.00,,,0.00,VWS V14.01,2013-03-15 21:58:00,